Meteopurmerend
purmerend
Purmerend - Baaienwijk



My webcam  My webcam


Onweer radar Meer informatie blitzortung!


Regen radar Meer informatie rain snow radar


Bezoek onze andere website:

CandyAppleRed WebdesignWebdesign Purmerend Candy Apple Red

MeteopurmerendBlog

Template documentation
and downloads



We konden geen weer-waarchuwingen ophalen. Ga rechtstreeks naar de Meteoalarm site : www.meteoalarm.eu en controleer daar .

15 daagse weersverwachting Lausanne (CH)

  • Overzicht
  • Per uur
  • 15 dagen
  • Extra
  • Vergelijk
  • Kaarten
  • Dagkaart
  • Meer »
  • Info
  • Statistieken
  • Directe link
    Temp 6h Neerslag Wind  
 06:13     21:08    Daglengte: 14:55 Vandaag
14:00
23°
 
2
20:00
24°
 
3
 06:14     21:07    Daglengte: 14:53 Morgen
02:00
21°
 
2
08:00
20°
 
1
14:00
23°
 
2
20:00
21°
12.4 mm
3
warningclass
 06:15     21:05    Daglengte: 14:50 Zaterdag 31 Jul
02:00
19°
8.5 mm
4
08:00
19°
15.8 mm
1
14:00
21°
3.7 mm
1
20:00
20°
21.0 mm
3
 06:16     21:04    Daglengte: 14:48 Zondag 01 Aug
02:00
17°
22.3 mm
2
08:00
15°
30.5 mm
1
Locatie info
Region: Lausanne
Latitude: 46.5196°N
Longitude: 6.6322°E
453 masl
Postcode: 1003
Temp/Neerslag /Baro Onweer/Dauwpunt
    Temp Baro 1h Neerslag Dauwpunt Wind UV Bewolking  
 06:13     21:08    Daglengte: 14:55 Vandaag
12:00
21°
1016.1 hPa   15.0°
2
Windvlaag: 3.1 m/s
5%
13:00
22°
1015.7 hPa   15.4°
2
Windvlaag: 3.3 m/s
3%
14:00
23°
1015.3 hPa   14.8°
2
Windvlaag: 3.3 m/s
0%
15:00
24°
1014.8 hPa   14.4°
3
Windvlaag: 3.5 m/s
0%
16:00
24°
1014.0 hPa   14.2°
3
Windvlaag: 3.5 m/s
0%
17:00
24°
1013.5 hPa   14.4°
3
Windvlaag: 3.5 m/s
0%
18:00
24°
1013.1 hPa   14.6°
4
Windvlaag: 3.3 m/s
6%
19:00
24°
1012.8 hPa   14.8°
3
Windvlaag: 3 m/s
1%
20:00
24°
1012.8 hPa   16.0°
3
Windvlaag: 2.3 m/s
1%
21:00
23°
1012.9 hPa   16.5°
2
Windvlaag: 2.4 m/s
1%
22:00
22°
1013.5 hPa   17.2°
2
Windvlaag: -0.6 m/s
1%
23:00
22°
1013.7 hPa   16.3°
2
Windvlaag: -2.9 m/s
13%
 06:14     21:07    Daglengte: 14:53 Morgen
00:00
21°
1013.6 hPa
12%
16.3°
1
Windvlaag: -2.6 m/s
8%
01:00
21°
1013.4 hPa
18%
16.3°
2
Windvlaag: 0.6 m/s
20%
02:00
21°
1013.1 hPa
19%
16.8°
2
Windvlaag: -0.2 m/s
9%
03:00
21°
1012.8 hPa
63%
16.8°
2
Windvlaag: -0.3 m/s
18%
04:00
21°
1012.6 hPa
57%
16.6°
1
Windvlaag: -0.2 m/s
15%
05:00
20°
1012.4 hPa
14%
16.7°
2
Windvlaag: -0.1 m/s
36%
06:00
20°
1012.4 hPa
14%
16.8°
1
Windvlaag: 0.6 m/s
47%
07:00
20°
1012.6 hPa
14%
16.9°
1
Windvlaag: 1.2 m/s
26%
08:00
20°
1012.6 hPa
14%
16.5°
1
Windvlaag: 2.1 m/s
29%
09:00
21°
1012.6 hPa
14%
16.0°
1
Windvlaag: 2.4 m/s
4%
10:00
21°
1012.5 hPa
14%
16.0°
2
Windvlaag: 3.2 m/s
7%
11:00
22°
1012.3 hPa
14%
16.0°
2
Windvlaag: 4.1 m/s
8%
12:00
23°
1011.9 hPa
14%
16.4°
3
Windvlaag: 4.9 m/s
9%
13:00
24°
1011.5 hPa
25%
16.7°
2
Windvlaag: 2.5 m/s
12%
14:00
23°
1011.1 hPa
39%
17.2°
2
Windvlaag: 2.5 m/s
84%
15:00
24°
1011.0 hPa
82%
17.6°
4
Windvlaag: 3.4 m/s
55%
16:00
24°
1011.3 hPa 1.2 mm
82%
17.7°
7
Windvlaag: 6.1 m/s
73% warningclass
17:00
23°
1011.5 hPa 1.3 mm
82%
16.8°
5
Windvlaag: 6.7 m/s
85% warningclass
18:00
22°
1011.5 hPa 1.6 mm
82%
17.1°
3
Windvlaag: -1 m/s
79% warningclass
19:00
21°
1011.7 hPa 3.7 mm
82%
17.6°
2
Windvlaag: 1.6 m/s
86% warningclass
20:00
21°
1012.3 hPa 4.5 mm
79%
16.9°
3
Windvlaag: 2.8 m/s
84% warningclass
21:00
21°
1012.4 hPa 2.5 mm
78%
16.8°
3
Windvlaag: 4.8 m/s
82%
22:00
20°
1013.5 hPa 3.4 mm
79%
15.6°
3
Windvlaag: 7.7 m/s
56%
23:00
20°
1013.9 hPa 2.6 mm
81%
15.5°
3
Windvlaag: 6 m/s
73% warningclass
 06:15     21:05    Daglengte: 14:50 Zaterdag 31 Jul
00:00
20°
1014.1 hPa
80%
15.2°
4
Windvlaag: 0.7 m/s
42% warningclass
01:00
20°
1014.0 hPa
77%
15.2°
4
Windvlaag: 0.7 m/s
63%
02:00
19°
1013.9 hPa
74%
14.5°
4
Windvlaag: 0.9 m/s
73%
03:00
19°
1013.6 hPa
74%
13.9°
3
Windvlaag: 1.6 m/s
66%
04:00
19°
1013.3 hPa
75%
13.4°
2
Windvlaag: 2.1 m/s
67%
05:00
19°
1012.0 hPa 4.1 mm
87%
15.2°
2
Windvlaag: 0.9 m/s
89% warningclass
06:00
19°
1012.0 hPa 3.9 mm
90%
14.8°
2
Windvlaag: 0.4 m/s
83%
07:00
19°
1012.2 hPa 4.1 mm
86%
13.4°
1
Windvlaag: 0.5 m/s
79% warningclass
08:00
19°
1012.3 hPa 3.8 mm
86%
13.3°
1
Windvlaag: 0.2 m/s
76%
09:00
19°
1012.3 hPa
89%
13.1°
2
Windvlaag: -0.2 m/s
51%
10:00
19°
1012.2 hPa 3.7 mm
99%
13.0°
2
Windvlaag: -0.1 m/s
15%
11:00
20°
1011.9 hPa
96%
12.3°
2
Windvlaag: 3 m/s
11%
12:00
20°
1011.6 hPa
53%
12.3°
2
Windvlaag: 3.2 m/s
9%
13:00
21°
1011.2 hPa
54%
12.6°
2
Windvlaag: 2.8 m/s
7%
14:00
21°
1010.7 hPa
94%
12.5°
1
Windvlaag: 2.3 m/s
29%
15:00
22°
1010.2 hPa 3.8 mm
97%
12.0°
1
Windvlaag: 2 m/s
63%
16:00
22°
1010.1 hPa 3.8 mm
95%
11.7°
2
Windvlaag: 2.1 m/s
55%
17:00
21°
1009.7 hPa 3.7 mm
99%
10.8°
1
Windvlaag: 1.7 m/s
60%
18:00
21°
1009.5 hPa 3.7 mm
97%
11.4°
2
Windvlaag: 1.8 m/s
61%
19:00
20°
1009.5 hPa 3.6 mm
100%
12.8°
3
Windvlaag: 1.3 m/s
95%
20:00
20°
1009.6 hPa 2.4 mm
100%
12.0°
3
Windvlaag: -3.4 m/s
88%
21:00
19°
1009.9 hPa 5.2 mm
100%
15.8°
4
Windvlaag: -4.4 m/s
92%
22:00
19°
1010.6 hPa 4.7 mm
100%
15.4°
3
Windvlaag: -5.6 m/s
95%
23:00
18°
1010.8 hPa 2.9 mm
100%
14.8°
3
Windvlaag: -4.7 m/s
99%
 06:16     21:04    Daglengte: 14:48 Zondag 01 Aug
00:00
18°
1011.0 hPa 3.1 mm
100%
14.5°
3
Windvlaag: -5 m/s
100%
01:00
17°
1010.8 hPa 3.4 mm
100%
14.4°
1
Windvlaag: -5.1 m/s
100%
02:00
17°
1010.5 hPa 3.1 mm
100%
14.4°
2
Windvlaag: -0.3 m/s
100%
03:00
17°
1010.2 hPa 4.7 mm
100%
14.1°
2
Windvlaag: 0.9 m/s
99%
04:00
16°
1010.3 hPa 4.6 mm
100%
13.8°
2
Windvlaag: 2 m/s
99%
05:00
16°
1010.1 hPa 4.7 mm
100%
13.5°
1
Windvlaag: 1.8 m/s
100%
06:00
16°
1010.4 hPa 5.2 mm
100%
13.8°
1
Windvlaag: 3.9 m/s
99%
07:00
15°
1010.7 hPa 5.5 mm
100%
13.3°
1
Windvlaag: 3 m/s
99%
08:00
15°
1011.2 hPa 5.8 mm
100%
13.3°
1
Windvlaag: 2.7 m/s
99%
09:00
16°
1010.9 hPa 15.0 mm
100%
13.8°
2
Windvlaag: 2.4 m/s
100%
10:00
17°
1011.1 hPa 15.4 mm
100%
14.0°
4
Windvlaag: 3.7 m/s
94%
11:00
18°
1011.1 hPa 15.4 mm
100%
14.0°
3
Windvlaag: 3.2 m/s
86%
Temp/Neerslag /Baro Onweer/Dauwpunt
    Temp Baro Neerslag Dauwpunt Wind Bewolking  
 06:13     21:08    Daglengte: 14:55 Vandaag
14:00
23°
1015.3 hPa   14.8°
2
0%
17:00
24°
1013.5 hPa   14.4°
3
0%
20:00
24°
1012.8 hPa   16.0°
3
1%
23:00
22°
1013.7 hPa   16.3°
2
13%
 06:14     21:07    Daglengte: 14:53 Morgen
02:00
21°
1013.1 hPa   16.8°
2
9%
05:00
20°
1012.4 hPa   16.7°
2
36%
08:00
20°
1012.6 hPa   16.5°
1
29%
11:00
22°
1012.3 hPa   16.0°
2
8%
14:00
23°
1011.1 hPa   17.2°
2
84%
17:00
23°
1011.5 hPa 2.5 mm 16.8°
5
85% warningclass
20:00
21°
1012.3 hPa 9.8 mm 16.9°
3
84% warningclass
23:00
20°
1013.9 hPa 8.5 mm 15.5°
3
73% warningclass
 06:15     21:05    Daglengte: 14:50 Zaterdag 31 Jul
02:00
19°
1013.9 hPa   14.5°
4
73%
05:00
19°
1012.0 hPa 4.1 mm 15.2°
2
89% warningclass
08:00
19°
1012.3 hPa 11.7 mm 13.3°
1
76%
11:00
20°
1011.9 hPa 3.7 mm 12.3°
2
11%
14:00
21°
1010.7 hPa   12.5°
1
29%
17:00
21°
1009.7 hPa 11.3 mm 10.8°
1
60%
20:00
20°
1009.6 hPa 9.6 mm 12.0°
3
88%
23:00
18°
1010.8 hPa 12.7 mm 14.8°
3
99%
 06:16     21:04    Daglengte: 14:48 Zondag 01 Aug
02:00
17°
1010.5 hPa 9.6 mm 14.4°
2
100%
05:00
16°
1010.1 hPa 14.0 mm 13.5°
1
100%
08:00
15°
1011.2 hPa 16.5 mm 13.3°
1
99%
11:00
18°
1011.1 hPa 45.8 mm 14.0°
3
86%
14:00
20°
1010.9 hPa 46.4 mm 12.9°
2
88%
17:00
19°
1013.0 hPa 43.6 mm 12.2°
1
0%
20:00
18°
1013.6 hPa 46.5 mm 13.6°
1
0%
23:00
15°
1015.6 hPa 48.9 mm 11.7°
1
1%
 06:18     21:02    Daglengte: 14:44 Maandag 02 Aug
02:00
14°
1016.0 hPa 49.7 mm 11.2°
1
1%
05:00
13°
1016.1 hPa 49.7 mm 10.5°
1
0%
08:00
14°
1016.8 hPa 49.7 mm 11.4°
0
0%
11:00
17°
1016.9 hPa 49.7 mm 12.5°
1
0%
14:00
19°
1015.8 hPa 49.7 mm 11.4°
1
0%
17:00
21°
1015.0 hPa 49.8 mm 10.5°
0
0%
20:00
20°
1014.9 hPa 49.8 mm 11.7°
1
0%
23:00
17°
1016.2 hPa 49.9 mm 11.5°
1
0%
 06:19     21:01    Daglengte: 14:42 Dinsdag 03 Aug
02:00
16°
1016.4 hPa 49.9 mm 10.9°
2
1%
05:00
15°
1016.0 hPa 49.9 mm 10.7°
1
1%
08:00
16°
1016.0 hPa 49.9 mm 11.0°
2
1%
11:00
18°
1015.5 hPa 49.9 mm 12.0°
1
1%
14:00
21°
1014.6 hPa 50.0 mm 13.1°
2
1%
17:00
22°
1013.0 hPa 50.2 mm 12.6°
3
1%
20:00
20°
1011.1 hPa 50.2 mm 15.2°
5
1%
23:00
16°
1014.3 hPa 61.2 mm 15.7°
5
1%
 06:20     21:00    Daglengte: 14:40 Woensdag 04 Aug
02:00
16°
1015.4 hPa 69.4 mm 13.6°
3
1%
05:00
15°
1015.3 hPa 71.5 mm 14.0°
3
1%
08:00
16°
1016.2 hPa 71.9 mm 13.8°
1
1%
11:00
16°
1016.7 hPa 72.2 mm 14.4°
2
1%
14:00
17°
1016.1 hPa 72.7 mm 14.4°
2
1%
17:00
18°
1015.8 hPa 73.4 mm 14.5°
2
1%
20:00
17°
1016.3 hPa 74.8 mm 14.7°
1
1%
23:00
16°
1017.3 hPa 76.0 mm 13.4°
1
1%
 06:21     20:58    Daglengte: 14:37 Donderdag 05 Aug
02:00
16°
1017.0 hPa 76.4 mm 12.8°
1
1%
05:00
14°
1016.6 hPa 76.6 mm 11.8°
1
1%
08:00
15°
1016.6 hPa 76.6 mm 12.3°
1
0%
11:00
19°
1016.0 hPa   12.2°
2
1%
14:00
21°
1014.6 hPa 153.3 mm 10.2°
1
1%
20:00
20°
1012.9 hPa 153.4 mm 12.0°
3
1%
 06:22     20:57    Daglengte: 14:35 Vrijdag 06 Aug
02:00
15°
1013.9 hPa 153.4 mm 11.8°
1
1%
08:00
15°
1013.8 hPa 153.6 mm 12.2°
1
1%
14:00
21°
1012.8 hPa 154.4 mm 10.9°
1
0%
20:00
21°
1012.8 hPa 154.4 mm 10.7°
1
0%
 06:24     20:55    Daglengte: 14:31 Zaterdag 07 Aug
02:00
15°
1014.7 hPa 154.4 mm 9.5°
1
0%
08:00
16°
1014.6 hPa 154.4 mm 9.4°
0
0%
14:00
20°
1012.8 hPa 154.4 mm 13.5°
1
0%
20:00
21°
1012.2 hPa 155.3 mm 15.9°
1
1%
 06:25     20:54    Daglengte: 14:29 Zondag 08 Aug
02:00
19°
1014.9 hPa 172.7 mm 17.1°
2
1%
08:00
16°
1017.6 hPa 0.4 mm 13.7°
1
37%
14:00
27°
1016.2 hPa 0.3 mm 15.0°
2
31%
20:00
22°
1016.7 hPa   18.2°
1
30%
 06:26     20:52    Daglengte: 14:26 Maandag 09 Aug
02:00
17°
1019.1 hPa 1.4 mm 14.6°
1
35%
08:00
18°
1019.4 hPa 0.8 mm 15.5°
1
43%
14:00
27°
1018.7 hPa 0.4 mm 17.4°
2
37%
20:00
22°
1019.1 hPa 1.0 mm 19.0°
1
30%
 06:27     20:51    Daglengte: 14:24 Dinsdag 10 Aug
02:00
17°
1021.4 hPa 0.7 mm 15.2°
1
32%
08:00
18°
1021.2 hPa 0.7 mm 15.5°
1
33%
14:00
27°
1020.0 hPa 0.3 mm 17.1°
2
31%
20:00
22°
1020.0 hPa 0.4 mm 18.8°
1
29%
 06:29     20:49    Daglengte: 14:20 Woensdag 11 Aug
02:00
16°
1021.8 hPa 0.7 mm 14.7°
1
25%
08:00
17°
1021.6 hPa 0.8 mm 14.6°
1
43%
14:00
26°
1019.8 hPa 0.8 mm 16.3°
1
31%
20:00
22°
1019.4 hPa 0.5 mm 18.1°
1
20%
 06:30     20:47    Daglengte: 14:17 Donderdag 12 Aug
02:00
16°
1020.7 hPa 0.5 mm 14.3°
1
28%
08:00
17°
1020.0 hPa 0.6 mm 14.9°
1
33%
14:00
26°
1018.2 hPa 0.7 mm 16.5°
2
29%
20:00
21°
1018.4 hPa 1.3 mm 17.7°
1
39%
 06:31     20:46    Daglengte: 14:15 Vrijdag 13 Aug
02:00
16°
1019.8 hPa 0.7 mm 14.2°
1
37%
08:00
17°
1019.6 hPa 0.4 mm 14.4°
1
42%
  CAPE Lifted Index Hail Supercell Tornado SRH 3km CL BTM PRES CL TOP PRES Swiss DWD icon SMHI TS
 06:13     21:08    Daglengte: 14:55 Vandaag
12:00 0 J/kg 3.0 K 0 % 0 % 0 % 0 m²/s² 0 0 9.81 1
13:00 0 J/kg 2.6 K 0 % 0 % 0 % 0 m²/s² 0 0 9.23 1
14:00 0 J/kg 2.5 K 0 % 0 % 0 % 0 m²/s² 0 0 8.74 1
15:00 0 J/kg 2.1 K 0 % 0 % 0 % 0 m²/s² 0 0 8.34 0
16:00 0 J/kg 1.6 K 0 % 0 % 0 % 0 m²/s² 0 0 8.02 0
17:00 1 J/kg 1.1 K 0 % 0 % 0 % 0 m²/s² 0 0 7.88 0
18:00 1 J/kg 0.5 K 0 % 0 % 0 % 0 m²/s² 0 0 7.28 1
19:00 0 J/kg 0.4 K 0 % 0 % 0 % 0 m²/s² 0 0 6.13 1
20:00 1 J/kg 0.2 K 0 % 0 % 0 % 0 m²/s² 0 0 5.09 1
21:00 0 J/kg 0.3 K 0 % 0 % 0 % 0 m²/s² 0 0 4.29 0
22:00 0 J/kg 1.1 K 0 % 0 % 0 % 0 m²/s² 0 0 4.16 0
23:00 0 J/kg -0.1 K 0 % 0 % 0 % 0 m²/s² 0 0 1.91 2
 06:14     21:07    Daglengte: 14:53 Morgen
00:00 0 J/kg -1.5 K 0 % 0 % 0 % 0 m²/s² 0 0 0.18 2
01:00 0 J/kg -2.1 K 0 % 0 % 0 % 0 m²/s² 0 0 -0.3 2
02:00 0 J/kg -2.4 K 0 % 0 % 0 % 0 m²/s² 0 0 -0.54 2
03:00 0 J/kg -2.1 K 0 % 0 % 0 % 0 m²/s² 0 0 0.48 80
04:00 0 J/kg -2.6 K 0 % 0 % 0 % 0 m²/s² 0 0 0.46 2
05:00 0 J/kg -2.5 K 0 % 0 % 0 % 0 m²/s² 0 0 0.29 2
06:00 0 J/kg -2.6 K 0 % 0 % 0 % 0 m²/s² 0 0 0.46 2
07:00 0 J/kg -2.6 K 0 % 0 % 0 % 0 m²/s² 0 0 0.7 2
08:00 4 J/kg -2.8 K 0 % 0 % 0 % 0 m²/s² 0 0 -0.07 2
09:00 140 J/kg -2.8 K 0 % 0 % 0 % 0 m²/s² 0 0 -0.52 2
10:00 402 J/kg -3.1 K 0 % 0 % 0 % 0 m²/s² 0 0 -1.75 1
11:00 567 J/kg -3.3 K 0 % 0 % 0 % 0 m²/s² 0 0 -2.22 0
12:00 305 J/kg -2.1 K 0 % 0 % 0 % 0 m²/s² 0 0 -1.74 1
13:00 82 J/kg -1.7 K 0 % 0 % 0 % 0 m²/s² 0 0 -1.16 2
14:00 249 J/kg -1.8 K 0 % 0 % 0 % 0 m²/s² 0 0 -1.53 3
15:00 712 J/kg -3.8 K 0 % 0 % 0 % 0 m²/s² 0 0 -3.8 3
16:00 887 J/kg -4.1 K 0 % 0 % 0 % 0 m²/s² 0 0 -4.01 80
17:00 906 J/kg -4.3 K 0 % 0 % 0 % 0 m²/s² 0 0 -4.21 80
18:00 824 J/kg -3.9 K 0 % 0 % 0 % 0 m²/s² 0 0 -3.21 95
19:00 424 J/kg -3.4 K 0 % 0 % 0 % 0 m²/s² 0 0 -3.4 80
20:00 363 J/kg -2.2 K 0 % 0 % 0 % 0 m²/s² 0 0 -2.2 95
21:00 399 J/kg -2.4 K 0 % 0 % 0 % 0 m²/s² 0 0 -2.01 80
22:00 241 J/kg -1.1 K 0 % 0 % 0 % 0 m²/s² 0 0 -0.2 80
23:00 40 J/kg 0.1 K 0 % 0 % 0 % 0 m²/s² 0 0 2.35 95
 06:15     21:05    Daglengte: 14:50 Zaterdag 31 Jul
00:00 19 J/kg 0.6 K 0 % 0 % 0 % 0 m²/s² 0 0 3.21 95
01:00 49 J/kg 0.7 K 0 % 0 % 0 % 0 m²/s² 0 0 3.79 80
02:00 88 J/kg 1.2 K 0 % 0 % 0 % 0 m²/s² 0 0 4.02 80
03:00 91 J/kg 1.2 K 0 % 0 % 0 % 0 m²/s² 0 0 3.72 80
04:00 48 J/kg 1.8 K 0 % 0 % 0 % 0 m²/s² 0 0 4.32 80
05:00 8 J/kg 3.0 K 0 % 0 % 0 % 0 m²/s² 0 0 5.61 95
06:00 0 J/kg 3.3 K 0 % 0 % 0 % 0 m²/s² 0 0 5.97 80
07:00 1 J/kg 3.2 K 0 % 0 % 0 % 0 m²/s² 0 0 6.44 95
08:00 1 J/kg 3.4 K 0 % 0 % 0 % 0 m²/s² 0 0 7.21 80
09:00 1 J/kg 3.1 K 0 % 0 % 0 % 0 m²/s² 0 0 7.45 3
10:00 0 J/kg 2.8 K 0 % 0 % 0 % 0 m²/s² 0 0 7.6 80
11:00 2 J/kg 2.3 K 0 % 0 % 0 % 0 m²/s² 0 0 6.98 2
12:00 6 J/kg 1.4 K 0 % 0 % 0 % 0 m²/s² 0 0 5.75 2
13:00 8 J/kg 0.6 K 0 % 0 % 0 % 0 m²/s² 0 0 4.62 2
14:00 19 J/kg 0.0 K 0 % 0 % 0 % 0 m²/s² 0 0 3.9 3
15:00 29 J/kg -0.4 K 0 % 0 % 0 % 0 m²/s² 0 0 2.42 3
16:00 60 J/kg -0.8 K 0 % 0 % 0 % 0 m²/s² 0 0 0.46 80
17:00 44 J/kg -0.5 K 0 % 0 % 0 % 0 m²/s² 0 0 0.16 80
18:00 64 J/kg 0.3 K 0 % 0 % 0 % 0 m²/s² 0 0 1.41 80
19:00 5 J/kg 2.7 K 0 % 0 % 0 % 0 m²/s² 0 0 3.21 3
20:00 3 J/kg 3.2 K 0 % 0 % 0 % 0 m²/s² 0 0 3.2 80
21:00 0 J/kg 2.5 K 0 % 0 % 0 % 0 m²/s² 0 0 2.86 80
22:00 0 J/kg 2.5 K 0 % 0 % 0 % 0 m²/s² 0 0 2.71 80
23:00 37 J/kg 1.8 K 0 % 0 % 0 % 0 m²/s² 0 0 1.92 61
 06:16     21:04    Daglengte: 14:48 Zondag 01 Aug
00:00 84 J/kg 1.2 K 0 % 0 % 0 % 0 m²/s² 0 0 1.23 61
01:00 77 J/kg 1.1 K 0 % 0 % 0 % 0 m²/s² 0 0 1.19 61
02:00 111 J/kg 0.4 K 0 % 0 % 0 % 0 m²/s² 0 0 0.58 61
03:00 109 J/kg -0.1 K 0 % 0 % 0 % 0 m²/s² 0 0 0.11 61
04:00 103 J/kg -0.2 K 0 % 0 % 0 % 0 m²/s² 0 0 0.4 61
05:00 156 J/kg -0.3 K 0 % 0 % 0 % 0 m²/s² 0 0 0.03 61
06:00 181 J/kg -0.4 K 0 % 0 % 0 % 0 m²/s² 0 0 -0.22 61
07:00 215 J/kg -0.6 K 0 % 0 % 0 % 0 m²/s² 0 0 -0.36 80
08:00 332 J/kg -1.2 K 0 % 0 % 0 % 0 m²/s² 0 0 -0.72 80
09:00 433 J/kg -1.5 K 0 % 0 % 0 % 0 m²/s² 0 0 -1.29
10:00 514 J/kg -1.8 K 0 % 0 % 0 % 0 m²/s² 0 0 -1.2
11:00 581 J/kg -2.0 K 0 % 0 % 0 % 0 m²/s² 0 0 -0.62
Temp Baro Wind Neerslag
  EWN Forecast EWN WRFDA DWD ICON FMI HIRLAM MET Norway GFS
 06:13     21:08    Daglengte: 14:55 Vandaag
14:00 22.8° 1015.3 hPa 2.0 m/s 0.0 mm 22.9° 1013.6 hPa 3.2 m/s 0.0 mm 23.2° 1015.1 hPa 1.6 m/s 0.0 mm 23.1° 1015.6 hPa 3.6 m/s 0.0 mm 21.5° 1015.2 hPa 1.3 m/s
17:00 24.3° 1013.5 hPa 3.5 m/s 0.0 mm 25.0° 1012.1 hPa 4.0 m/s 0.0 mm 25.0° 1013.4 hPa 1.3 m/s 0.0 mm 24.5° 1014.3 hPa 3.9 m/s 0.0 mm 24.8° 1013.7 hPa 1.4 m/s
20:00 24.0° 1012.8 hPa 2.7 m/s 0.0 mm 24.5° 1012.0 hPa 3.0 m/s 0.0 mm 24.9° 1012.6 hPa 1.2 m/s 0.0 mm 24.1° 1014.6 hPa 4.0 m/s 0.0 mm 23.7° 1013.1 hPa 1.3 m/s
23:00 21.7° 1013.7 hPa 1.5 m/s 0.0 mm 22.2° 1012.5 hPa 0.6 m/s 0.0 mm 22.1° 1013.2 hPa 1.6 m/s 0.0 mm 21.0° 1016.4 hPa 0.6 m/s 0.0 mm 19.1° 1014.1 hPa 0.3 m/s
 06:14     21:07    Daglengte: 14:53 Morgen
02:00 21.0° 1013.1 hPa 1.7 m/s 0.0 mm 20.5° 1011.7 hPa 3.4 m/s 0.1 mm 21.8° 1012.8 hPa 1.6 m/s 0.0 mm 19.7° 1015.6 hPa 1.6 m/s 0.0 mm 17.2° 1014.3 hPa 1.4 m/s
05:00 20.4° 1012.4 hPa 1.6 m/s 0.0 mm 19.1° 1011.3 hPa 0.9 m/s 0.6 mm 21.0° 1012.2 hPa 1.6 m/s 0.3 mm 18.2° 1014.4 hPa 2.5 m/s 0.0 mm 16.5° 1013.6 hPa 0.9 m/s
08:00 20.2° 1012.6 hPa 1.3 m/s 0.0 mm 21.8° 1010.8 hPa 4.5 m/s 0.6 mm 20.9° 1012.6 hPa 0.9 m/s 0.0 mm 19.5° 1014.1 hPa 0.9 m/s 0.0 mm 18.1° 1013.2 hPa 0.7 m/s
11:00 22.3° 1012.3 hPa 2.2 m/s 0.0 mm 24.0° 1011.0 hPa 8.0 m/s 0.9 mm 23.0° 1012.5 hPa 0.7 m/s 0.0 mm 22.5° 1012.8 hPa 3.7 m/s 0.0 mm 21.3° 1012.7 hPa 1.1 m/s
14:00 23.5° 1011.1 hPa 2.2 m/s 0.0 mm 20.6° 1009.8 hPa 2.0 m/s 6.0 mm 24.8° 1011.4 hPa 0.8 m/s 0.0 mm 23.9° 1012.5 hPa 8.6 m/s 0.0 mm 23.8° 1011.3 hPa 3.2 m/s
17:00 22.5° 1011.5 hPa 4.9 m/s 2.5 mm 23.0° 1009.4 hPa 2.8 m/s 9.9 mm 22.3° 1012.2 hPa 5.1 m/s 0.8 mm 24.3° 1011.8 hPa 4.8 m/s 0.0 mm 25.5° 1010.2 hPa 5.5 m/s
20:00 20.5° 1012.3 hPa 2.7 m/s 9.8 mm 19.8° 1010.2 hPa 2.3 m/s 21.7 mm 20.1° 1012.9 hPa 1.2 m/s 4.1 mm 22.8° 1012.0 hPa 2.5 m/s 0.0 mm 19.5° 1012.1 hPa 5.4 m/s
23:00 20.4° 1013.9 hPa 3.3 m/s 8.5 mm 19.5° 1011.7 hPa 4.6 m/s 31.2 mm 19.6° 1013.3 hPa 3.4 m/s 2.6 mm 21.1° 1014.6 hPa 3.3 m/s 0.0 mm 18.2° 1013.9 hPa 1.0 m/s
 06:15     21:05    Daglengte: 14:50 Zaterdag 31 Jul
02:00 19.3° 1013.9 hPa 4.0 m/s 0.0 mm 18.9° 1012.4 hPa 4.6 m/s 31.3 mm 19.3° 1012.8 hPa 2.7 m/s 3.0 mm 19.3° 1014.7 hPa 4.6 m/s 0.0 mm 18.3° 1013.9 hPa 1.5 m/s
05:00 18.8° 1012.0 hPa 2.3 m/s 4.1 mm 16.5° 1011.5 hPa 4.0 m/s 31.3 mm 19.1° 1011.8 hPa 1.2 m/s 3.0 mm 17.4° 1012.9 hPa 1.2 m/s
08:00 18.6° 1012.3 hPa 1.1 m/s 11.7 mm 17.5° 1012.1 hPa 0.8 m/s 31.3 mm 19.1° 1011.9 hPa 0.6 m/s 2.0 mm 17.4° 1013.3 hPa 1.4 m/s
11:00 19.7° 1011.9 hPa 2.2 m/s 3.7 mm 19.7° 1011.6 hPa 2.6 m/s 31.3 mm 20.2° 1011.6 hPa 0.8 m/s 0.4 mm 19.6° 1012.7 hPa 0.4 m/s
14:00 21.3° 1010.7 hPa 1.4 m/s 0.0 mm 21.7° 1010.5 hPa 2.5 m/s 31.3 mm 21.9° 1010.3 hPa 1.1 m/s 0.0 mm 21.0° 1011.5 hPa 0.9 m/s
17:00 21.3° 1009.7 hPa 1.3 m/s 11.3 mm 22.7° 1009.7 hPa 2.1 m/s 31.3 mm 21.2° 1009.7 hPa 1.1 m/s 1.4 mm 22.2° 1009.5 hPa 3.6 m/s
20:00 19.9° 1009.6 hPa 2.9 m/s 9.6 mm 19.1° 1009.9 hPa 4.5 m/s 31.3 mm 19.6° 1009.6 hPa 1.3 m/s 1.0 mm 18.0° 1011.0 hPa 2.2 m/s
23:00 18.3° 1010.8 hPa 3.3 m/s 12.7 mm 16.3° 1011.4 hPa 1.1 m/s 38.8 mm 18.2° 1009.8 hPa 3.5 m/s 2.3 mm 15.6° 1012.8 hPa 1.8 m/s
 06:16     21:04    Daglengte: 14:48 Zondag 01 Aug
02:00 17.2° 1010.5 hPa 1.8 m/s 9.6 mm 16.0° 1011.1 hPa 0.6 m/s 39.7 mm 17.2° 1010.1 hPa 2.0 m/s 1.3 mm 14.1° 1013.0 hPa 1.3 m/s
05:00 16.2° 1010.1 hPa 1.2 m/s 14.0 mm 15.7° 1009.6 hPa 1.5 m/s 40.1 mm 16.3° 1010.3 hPa 1.1 m/s 0.9 mm 14.0° 1012.2 hPa 1.1 m/s
08:00 15.5° 1011.2 hPa 1.3 m/s 16.5 mm 15.7° 1010.4 hPa 2.6 m/s 41.6 mm 15.4° 1011.4 hPa 1.0 m/s 4.0 mm 14.1° 1013.2 hPa 1.1 m/s
11:00 17.6° 1011.1 hPa 3.2 m/s 45.8 mm 17.6° 1011.1 hPa 3.2 m/s 45.8 mm 16.0° 1013.8 hPa 1.8 m/s
14:00 20.0° 1010.9 hPa 2.1 m/s 46.4 mm 20.0° 1010.9 hPa 2.1 m/s 46.4 mm 18.7° 1013.0 hPa 0.7 m/s
17:00 19.3° 1013.0 hPa 1.4 m/s 43.6 mm 19.3° 1013.0 hPa 1.4 m/s 43.6 mm
20:00 17.7° 1013.6 hPa 1.2 m/s 46.5 mm 17.7° 1013.6 hPa 1.2 m/s 46.5 mm
23:00 15.1° 1015.6 hPa 0.7 m/s 48.9 mm 15.1° 1015.6 hPa 0.7 m/s 48.9 mm
 06:18     21:02    Daglengte: 14:44 Maandag 02 Aug
02:00 14.0° 1016.0 hPa 0.8 m/s 49.7 mm 14.0° 1016.0 hPa 0.8 m/s 49.7 mm
05:00 13.1° 1016.1 hPa 0.6 m/s 49.7 mm 13.1° 1016.1 hPa 0.6 m/s 49.7 mm
08:00 14.2° 1016.8 hPa 0.2 m/s 49.7 mm 14.2° 1016.8 hPa 0.2 m/s 49.7 mm
11:00 17.5° 1016.9 hPa 0.7 m/s 49.7 mm 17.5° 1016.9 hPa 0.7 m/s 49.7 mm
14:00 19.3° 1015.8 hPa 0.8 m/s 49.7 mm 19.3° 1015.8 hPa 0.8 m/s 49.7 mm
17:00 21.0° 1015.0 hPa 0.4 m/s 49.8 mm 21.0° 1015.0 hPa 0.4 m/s 49.8 mm
20:00 20.2° 1014.9 hPa 0.7 m/s 49.8 mm 20.2° 1014.9 hPa 0.7 m/s 49.8 mm
23:00 16.8° 1016.2 hPa 1.0 m/s 49.9 mm 16.8° 1016.2 hPa 1.0 m/s 49.9 mm
 06:19     21:01    Daglengte: 14:42 Dinsdag 03 Aug
02:00 15.7° 1016.4 hPa 1.5 m/s 49.9 mm 15.7° 1016.4 hPa 1.5 m/s 49.9 mm
05:00 15.2° 1016.0 hPa 1.2 m/s 49.9 mm 15.2° 1016.0 hPa 1.2 m/s 49.9 mm
08:00 16.2° 1016.0 hPa 1.5 m/s 49.9 mm 16.2° 1016.0 hPa 1.5 m/s 49.9 mm
11:00 18.4° 1015.5 hPa 1.4 m/s 49.9 mm 18.4° 1015.5 hPa 1.4 m/s 49.9 mm
14:00 20.6° 1014.6 hPa 1.8 m/s 50.0 mm 20.6° 1014.6 hPa 1.8 m/s 50.0 mm
17:00 21.6° 1013.0 hPa 2.9 m/s 50.2 mm 21.6° 1013.0 hPa 2.9 m/s 50.2 mm
20:00 20.1° 1011.1 hPa 4.5 m/s 50.2 mm 20.1° 1011.1 hPa 4.5 m/s 50.2 mm
23:00 16.2° 1014.3 hPa 5.0 m/s 61.2 mm 16.2° 1014.3 hPa 5.0 m/s 61.2 mm
 06:20     21:00    Daglengte: 14:40 Woensdag 04 Aug
02:00 15.6° 1015.4 hPa 2.6 m/s 69.4 mm 15.6° 1015.4 hPa 2.6 m/s 69.4 mm
05:00 15.1° 1015.3 hPa 2.5 m/s 71.5 mm 15.1° 1015.3 hPa 2.5 m/s 71.5 mm
08:00 15.6° 1016.2 hPa 1.1 m/s 71.9 mm 15.6° 1016.2 hPa 1.1 m/s 71.9 mm
11:00 16.4° 1016.7 hPa 1.6 m/s 72.2 mm 16.4° 1016.7 hPa 1.6 m/s 72.2 mm
14:00 17.5° 1016.1 hPa 1.6 m/s 72.7 mm 17.5° 1016.1 hPa 1.6 m/s 72.7 mm
17:00 18.2° 1015.8 hPa 1.7 m/s 73.4 mm 18.2° 1015.8 hPa 1.7 m/s 73.4 mm
20:00 17.1° 1016.3 hPa 1.2 m/s 74.8 mm 17.1° 1016.3 hPa 1.2 m/s 74.8 mm
23:00 15.9° 1017.3 hPa 1.0 m/s 76.0 mm 15.9° 1017.3 hPa 1.0 m/s 76.0 mm
 06:21     20:58    Daglengte: 14:37 Donderdag 05 Aug
02:00 15.7° 1017.0 hPa 1.4 m/s 76.4 mm 15.7° 1017.0 hPa 1.4 m/s 76.4 mm
05:00 14.1° 1016.6 hPa 1.5 m/s 76.6 mm 14.1° 1016.6 hPa 1.5 m/s 76.6 mm
08:00 15.0° 1016.6 hPa 1.2 m/s 76.6 mm 15.0° 1016.6 hPa 1.2 m/s 76.6 mm
11:00 18.6° 1016.0 hPa 2.1 m/s 76.6 mm 18.6° 1016.0 hPa 2.1 m/s 76.6 mm
14:00 20.7° 1014.6 hPa 1.4 m/s 76.7 mm 20.7° 1014.6 hPa 1.4 m/s 76.7 mm
20:00 19.9° 1012.9 hPa 2.5 m/s 76.7 mm 19.9° 1012.9 hPa 2.5 m/s 76.7 mm
 06:22     20:57    Daglengte: 14:35 Vrijdag 06 Aug
02:00 15.0° 1013.9 hPa 1.1 m/s 76.7 mm 15.0° 1013.9 hPa 1.1 m/s 76.7 mm
08:00 15.4° 1013.8 hPa 0.6 m/s 76.9 mm 15.4° 1013.8 hPa 0.6 m/s 76.9 mm
14:00 21.1° 1012.8 hPa 1.5 m/s 77.2 mm 21.1° 1012.8 hPa 1.5 m/s 77.2 mm
20:00 20.9° 1012.8 hPa 1.3 m/s 77.2 mm 20.9° 1012.8 hPa 1.3 m/s 77.2 mm
 06:24     20:55    Daglengte: 14:31 Zaterdag 07 Aug
02:00 15.1° 1014.7 hPa 0.5 m/s 77.2 mm 15.1° 1014.7 hPa 0.5 m/s 77.2 mm
08:00 16.2° 1014.6 hPa 0.4 m/s 77.2 mm 16.2° 1014.6 hPa 0.4 m/s 77.2 mm
14:00 19.7° 1012.8 hPa 1.5 m/s 77.2 mm 19.7° 1012.8 hPa 1.5 m/s 77.2 mm
20:00 20.6° 1012.2 hPa 1.2 m/s 78.1 mm 20.6° 1012.2 hPa 1.2 m/s 78.1 mm
 06:25     20:54    Daglengte: 14:29 Zondag 08 Aug
02:00 18.6° 1014.9 hPa 1.5 m/s 89.6 mm 18.6° 1014.9 hPa 1.5 m/s 89.6 mm
08:00 16.1° 1017.6 hPa 1.0 m/s 0.4 mm
14:00 26.6° 1016.2 hPa 1.9 m/s 0.3 mm
20:00 21.9° 1016.7 hPa 0.9 m/s 0.0 mm
 06:26     20:52    Daglengte: 14:26 Maandag 09 Aug
02:00 16.6° 1019.1 hPa 1.1 m/s 1.4 mm
08:00 17.7° 1019.4 hPa 0.9 m/s 0.8 mm
14:00 27.1° 1018.7 hPa 1.9 m/s 0.4 mm
20:00 22.4° 1019.1 hPa 0.6 m/s 1.0 mm
 06:27     20:51    Daglengte: 14:24 Dinsdag 10 Aug
02:00 16.7° 1021.4 hPa 1.1 m/s 0.7 mm
08:00 17.5° 1021.2 hPa 0.9 m/s 0.7 mm
14:00 26.8° 1020.0 hPa 1.6 m/s 0.3 mm
20:00 22.1° 1020.0 hPa 1.1 m/s 0.4 mm
 06:29     20:49    Daglengte: 14:20 Woensdag 11 Aug
02:00 16.4° 1021.8 hPa 0.8 m/s 0.7 mm
08:00 16.8° 1021.6 hPa 0.6 m/s 0.8 mm
14:00 26.2° 1019.8 hPa 1.4 m/s 0.8 mm
20:00 21.9° 1019.4 hPa 0.9 m/s 0.5 mm
 06:30     20:47    Daglengte: 14:17 Donderdag 12 Aug
02:00 15.9° 1020.7 hPa 1.0 m/s 0.5 mm
08:00 16.9° 1020.0 hPa 0.8 m/s 0.6 mm
14:00 26.1° 1018.2 hPa 1.6 m/s 0.7 mm
20:00 21.1° 1018.4 hPa 0.6 m/s 1.3 mm
 06:31     20:46    Daglengte: 14:15 Vrijdag 13 Aug
02:00 15.8° 1019.8 hPa 0.6 m/s 0.7 mm
08:00 16.6° 1019.6 hPa 0.7 m/s 0.4 mm
FMI Hirlam - 7.5 km EWN WRFDA - 12 km DWD ICON - 7 km GFS - 25 km Basiskaart






























































Updatetijd (Europe/Amsterdam) Resolutie Lengte Stap
FMI Hirlam 07:00, 13:00, 19:00, 01:00 7.5 km 49h 1h
EWN WRFDA 10:15, 16:15, 22:15, 04:15 12 km 73h 1h
DWD ICON 06:15, 12:15, 18:15, 00:15 7 km 75h 1h
GFS 08:15, 14:15, 20:15, 02:15 25 km 237h 3h
30+ mm
25-30 mm
20-25 mm
15-20 mm
10-15 mm
6-10 mm
4-6 mm
2-4 mm
1-2 mm
0.5-1 mm
0.2-0.5 mm
0.1-0.2 mm
30+ mm
25-30 mm
20-25 mm
15-20 mm
10-15 mm
6-10 mm
4-6 mm
2-4 mm
1-2 mm
0.5-1 mm
0.2-0.5 mm
0.1-0.2 mm
Sneeuwval
Natte sneeuw
Hagel
Vorst
30+ mm
25-30 mm
20-25 mm
15-20 mm
10-15 mm
6-10 mm
4-6 mm
2-4 mm
1-2 mm
0.5-1 mm
0.2-0.5 mm
0.1-0.2 mm
Sneeuwval
Natte sneeuw
Hagel
Vorst
Onweer
50 mm
40 mm
30 mm
26 mm
22 mm
18 mm
14 mm
10 mm
9 mm
8 mm
7 mm
6 mm
5 mm
4.5 mm
4 mm
3.5 mm
3 mm
2.5 mm
2 mm
1.5 mm
1 mm
0.8 mm
0.6 mm
0.4 mm
0.2 mm
0.05 mm
35°
30°
25°